Location: The C. Gantt Observatory
(33.6981°N, 81.6836°W)
Time: 01:23:04
(UTC-04:00)

Iridium 30 - Visible Passes

Search period start: 26 March 2017 00:00
Search period end: 05 April 2017 00:00
Orbit: 776 x 779 km, 86.4° (Epoch: 24 March)

Date Brightness Start Highest point End Pass type
(mag) Time Alt. Az. Time Alt. Az. Time Alt. Az.
26 Mar 7.4 21:15:17 10° NE 21:16:31 14° NE 21:16:31 14° NE visible
26 Mar 7.7 22:54:58 10° NNW 22:57:01 22° NNW 22:57:01 22° NNW visible
27 Mar 6.8 22:21:09 10° N 22:24:03 34° N 22:24:03 34° N visible
28 Mar 6.3 21:47:43 10° N 21:51:07 38° NNE 21:51:07 38° NNE visible
28 Mar 8.4 23:30:35 10° NW 23:31:37 12° WNW 23:31:37 12° WNW visible
29 Mar 6.6 21:14:44 10° NNE 21:18:13 26° ENE 21:18:13 26° ENE visible
29 Mar 7.6 22:55:30 10° NNW 22:58:43 24° WNW 22:58:43 24° WNW visible
30 Mar 7.1 20:42:34 10° NE 20:45:22 15° ENE 20:45:22 15° ENE visible
30 Mar 6.3 22:21:23 10° NNW 22:25:53 48° WNW 22:25:53 48° WNW visible
31 Mar 5.3 21:47:43 10° N 21:52:58 83° E 21:53:04 82° ESE visible
01 Apr 5.9 21:14:27 10° NNE 21:19:23 42° E 21:20:18 38° ESE visible
01 Apr 7.9 22:56:21 10° NW 22:59:41 17° W 23:00:50 16° W visible
02 Apr 6.7 20:41:42 10° NNE 20:45:43 22° E 20:47:37 18° ESE visible
02 Apr 7.0 22:21:47 10° NNW 22:26:25 33° W 22:28:08 27° WSW visible
03 Apr 7.3 20:10:29 10° ENE 20:11:54 11° ENE 20:13:19 10° E visible
03 Apr 5.8 21:47:52 10° N 21:53:03 66° W 21:55:30 31° SSW visible
04 Apr 5.5 21:14:22 10° N 21:19:33 64° E 21:22:57 22° SSE visible
04 Apr 8.4 22:58:01 10° WNW 22:59:36 11° WNW 23:01:09 10° W visible
